This demonstration page uses our WeatherBlox Daily Observations layout. Learn more.

39.29038, -76.61219

Hourly Observations for January 14, 2021

Temp ( °F °C ) Dew Point ( °F °C ) Humidity (%) Winds ( mph kmh ) Pressure ( in mb ) Visibility ( mi km ) Precip ( " mm )
12:54 am 00:54 Mostly Clear with Mist and Fog 29 -1.7 26 -3.3 89 89 Calm 29.84 1011 5 8.0467 0 0
1:44 am 01:44 Mostly Clear with Mist and Fog 29 -1.7 26 -3.3 89 89 Calm 29.86 1011 6 9.65604 0 0
1:54 am 01:54 Mostly Clear with Mist and Fog 28 -2.2 26 -3.3 92 92 Calm 29.85 1011 6 9.65604 0 0
2:54 am 02:54 Mostly Clear with Mist and Fog 28 -2.2 25 -3.9 88 88 Calm 29.85 1011 6 9.65604 0 0
3:54 am 03:54 Mostly Clear with Mist and Fog 28 -2.2 25 -3.9 88 88 WNW 3 6 29.83 1010 6 9.65604 0 0
4:54 am 04:54 Partly Cloudy with Mist and Fog 28 -2.2 25 -3.9 88 88 Calm 29.83 1010 6 9.65604 0 0
5:54 am 05:54 Partly Cloudy with Mist and Fog 30 -1.1 27 -2.8 88 88 WNW 3 6 29.83 1010 5 8.0467 0 0
6:54 am 06:54 Mostly Cloudy with Mist and Fog 30 -1.1 27 -2.8 88 88 WNW 3 6 29.84 1011 7 11.26538 0 0
7:54 am 07:54 Mostly Cloudy with Mist and Fog 32 0 29 -1.7 88 88 Calm 29.84 1010 3 4.82802 0 0
8:54 am 08:54 Mostly Cloudy with Mist and Fog 36 2.2 32 0 86 86 Calm 29.85 1011 5 8.0467 0 0
9:54 am 09:54 Mostly Cloudy 42 5.6 33 0.6 71 71 Calm 29.86 1011 7 11.26538 0 0
10:54 am 10:54 Mostly Cloudy 47 8.3 29 -1.7 50 50 NW 3 6 29.85 1011 10 16.0934 0 0
11:54 am 11:54 Mostly Cloudy 50 10 28 -2.2 43 43 Calm 29.83 1010 10 16.0934 0 0
1:54 pm 13:54 Partly Cloudy 53 11.7 26 -3.3 35 35 E 3 6 29.79 1009 10 16.0934 0 0
2:54 pm 14:54 Mostly Sunny 54 12.2 26 -3.3 34 34 VRB 3 6 29.78 1008 10 16.0934 0 0
3:54 pm 15:54 Partly Cloudy 53 11.7 28 -2.2 38 38 E 6 9 29.79 1009 10 16.0934 0 0
4:54 pm 16:54 Mostly Cloudy 47 8.3 29 -1.7 50 50 ESE 7 11 29.79 1009 10 16.0934 0 0
5:54 pm 17:54 Mostly Cloudy 44 6.7 27 -2.8 51 51 E 3 6 29.8 1009 10 16.0934 0 0
6:54 pm 18:54 Mostly Cloudy 43 6.1 27 -2.8 53 53 Calm 29.83 1010 10 16.0934 0 0
7:54 pm 19:54 Mostly Cloudy 37 2.8 27 -2.8 67 67 Calm 29.83 1010 10 16.0934 0 0
8:54 pm 20:54 Mostly Cloudy 39 3.9 27 -2.8 62 62 Calm 29.84 1010 10 16.0934 0 0
9:54 pm 21:54 Mostly Cloudy 37 2.8 27 -2.8 67 67 Calm 29.85 1011 10 16.0934 0 0
10:54 pm 22:54 Mostly Cloudy 34 1.1 26 -3.3 73 73 Calm 29.86 1011 10 16.0934 0 0
11:54 pm 23:54 Mostly Cloudy 33 0.6 26 -3.3 75 75 Calm 29.87 1012 10 16.0934 0 0

Powered by AerisWeather